Location: Bastelaar
(51.0950°N, 3.8602°E)
Time: 09:00:09
(UTC+00:00)

BlueWalker 3 - Pass Details

Date: 25 January 2026
Orbit: 450 x 461 km, 53.2° (Epoch: 11 February)

Event Time Altitude Azimuth Distance (km) Brightness Sun altitude
Rises 18:11:56 0° 242° (WSW) 2,452 6.9 -16.9°
Reaches altitude 10° 18:14:04 10° 241° (WSW) 1,581 5.6 -17.2°
Maximum altitude 18:17:36 73° 157° (SSE) 477 1.7 -17.7°
Enters shadow 18:18:21 52° 90° (E) 571 1.8 -17.8°
